Location: Alafon
(8.4500°N, 4.2333°E)
Time: 23:49:28
(UTC+00:00)

Explorer 7 - Pass Details

Date: 27 July 2021
Orbit: 484 x 676 km, 50.3° (Epoch: 18 September)

Event Time Altitude Azimuth Distance (km) Brightness Sun altitude
Rises 03:05:43 0° 191° (S) 2,552 - -34.4°
Reaches altitude 10° 03:08:23 10° 171° (S) 1,658 - -33.8°
Maximum altitude 03:11:02 18° 126° (SE) 1,224 - -33.2°
Exits shadow 03:13:06 12° 88° (E) 1,505 9.7 -32.8°
Drops below altitude 10° 03:13:39 10° 81° (E) 1,654 10.0 -32.7°
Sets 03:16:19 0° 62° (ENE) 2,543 11.3 -32.1°
